GSAT0204 (GALILEO 8)

Last updated on Thu Apr 17 2025 00:02:28 GMT+0000 (Coordinated Universal Time)

1 40545U 15017B 25105.26157800 -.00000086 00000+0 00000+0 0 9997 2 40545 56.9042 353.2698 0002738 286.3930 73.6259 1.70475774 24957
UTC large
Height (km)
Speed (km/s)
/
Latitude / Longitude
Inclination (degrees)
Orbital Period (minutes)
Azimuth
Elevation
Range (km)
Doppler Factor

Next 0 passes for location: London (51.5072 / 0.1276)

Sorry there are no passes over London.